RH
86 92 99 97 98 95 95 90 83 77 75 71 63 58 53 52 53 55 50 50 50 43 40 39 33 30 29 38 42 41 42 40 40 45 47 40 45 37 36 35 39 40 44 50 45 53 50 28 33 37 36 34 34 36
98 93 95 95 96 90 86 80 78 73 67 61 58 54 52 52 53 52 49 51 41 42 52 43 34 30 28 32 40 40 38 36 39 43 44 44 49 47 42 42 38 40 37 38 36 35 32 33 34 35 36 36 37 39
98 98 96 92 90 88 84 76 70 66 61 57 55 54 53 52 50 50 58 55 45 55 56 51 42 33 30 38 39 44 43 42 44 45 44 46 53 47 51 43 39 36 35 37 37 33 34 36 36 37 38 39 41 44
96 94 91 88 84 83 84 82 75 69 65 60 56 52 51 50 51 47 50 53 53 61 66 53 42 43 44 46 44 40 43 48 47 44 45 47 48 41 46 41 41 36 38 38 37 35 36 35 38 41 46 50 55 59
92 90 88 87 85 84 82 77 74 71 68 63 54 49 47 46 47 50 55 71 69 69 61 50 45 49 48 45 48 53 48 47 49 46 44 44 42 45 45 43 43 36 39 41 40 37 40 43 50 56 61 65 67 68
90 86 82 82 81 78 80 81 76 66 58 51 49 47 44 43 49 59 73 76 82 81 74 70 64 63 59 60 65 57 46 45 41 40 43 40 39 39 48 45 36 34 37 40 42 46 53 59 64 67 70 70 70 70
88 84 79 78 83 77 77 76 74 65 59 55 49 47 46 53 65 72 87 72 79 80 73 82 83 77 72 68 64 57 50 45 43 41 42 40 38 40 46 46 44 44 48 53 56 57 58 61 66 67 69 72 75 77
85 81 78 77 79 81 76 69 70 76 80 75 72 72 78 80 80 74 68 64 65 65 60 74 76 76 69 66 62 58 54 47 43 42 41 43 48 52 57 55 56 57 58 58 58 60 63 64 70 75 78 81 86 89
82 78 78 76 81 76 84 72 75 77 77 79 82 81 82 82 84 83 79 74 70 63 61 57 68 75 72 68 67 65 55 50 46 49 54 58 64 64 61 60 60 61 63 64 64 67 72 78 82 84 86 90 92 93
89 85 83 81 81 82 84 79 76 78 76 74 67 63 69 74 75 73 72 70 65 61 58 61 57 54 52 53 50 49 51 59 65 67 68 69 70 65 63 64 64 66 68 73 78 80 85 88 91 92 93 94 94 91
93 92 91 90 90 89 84 78 78 78 76 74 76 77 73 65 63 63 66 65 64 62 58 56 58 56 55 57 61 66 72 75 74 73 76 76 71 67 74 79 80 81 83 86 88 89 88 88 87 86 86 85 85 84
95 94 92 90 92 91 93 88 81 80 82 81 80 80 77 75 72 73 74 71 67 69 66 68 66 66 68 72 77 78 80 81 83 78 80 77 68 76 83 86 88 86 84 84 82 80 80 80 81 80 80 78 74 70
93 94 95 93 90 93 95 93 89 85 83 81 79 77 76 78 81 81 79 78 76 76 78 80 79 79 78 79 82 83 83 84 78 81 80 76 80 89 91 91 89 85 85 82 80 76 74 73 71 66 60 57 58 59
96 96 96 95 92 90 91 95 93 91 89 89 90 91 89 90 85 82 79 79 81 81 82 82 82 82 84 85 85 85 86 88 90 89 87 88 93 95 93 90 88 87 82 77 74 76 73 67 59 57 57 54 51 53
88 89 92 93 96 97 96 96 96 92 92 94 93 96 93 88 87 86 86 84 81 80 79 81 83 84 86 89 91 94 96 94 89 87 93 95 97 96 94 89 88 81 77 79 77 68 57 57 57 55 51 48 44 43
73 79 85 91 92 93 97 97 96 96 97 97 96 96 94 91 91 90 88 88 89 88 90 91 91 94 95 97 97 98 98 94 93 95 97 97 96 94 91 87 87 78 67 66 60 60 58 53 49 44 43 47 47 46
65 65 67 72 79 87 88 90 83 91 96 97 98 98 98 97 98 98 98 98 98 98 99 98 98 98 98 97 97 96 97 98 98 96 93 88 86 83 78 70 70 68 58 56 57 57 56 54 52 54 56 55 54 52
54 56 54 60 62 61 63 67 73 78 87 87 91 94 92 92 93 94 93 93 93 94 95 96 94 97 96 94 91 90 86 84 82 79 75 70 67 65 62 60 56 55 60 63 62 62 62 59 58 57 58 58 57 55
29 32 41 45 43 40 45 51 56 66 74 75 80 80 78 77 75 72 69 66 64 62 63 63 66 65 69 69 68 64 61 56 55 57 57 57 54 56 59 64 67 65 65 66 67 65 63 63 64 64 64 62 60 57
19 19 19 21 25 31 40 43 46 52 58 61 61 60 59 59 58 57 53 50 48 46 44 46 49 49 48 48 49 50 50 49 50 54 58 58 60 64 67 69 70 70 71 73 70 70 73 74 72 68 64 60 56 51
8 9 10 11 16 22 32 39 40 45 49 52 52 52 49 47 47 46 45 44 43 41 42 45 47 49 48 47 48 51 53 56 61 63 64 65 69 74 76 76 75 77 76 78 81 83 79 72 68 64 60 56 50 44
11 8 7 7 11 17 24 28 30 29 32 33 33 32 33 32 33 36 39 43 47 49 49 50 53 57 58 57 57 59 61 64 68 69 73 78 79 80 82 84 84 84 86 86 83 77 74 70 66 60 54 48 42 35
10 9 10 12 14 20 27 29 30 30 31 31 32 33 36 36 38 34 40 45 48 50 51 53 56 62 65 68 69 69 70 78 83 85 85 87 87 89 90 92 92 90 86 82 78 74 70 66 59 53 44 36 31 30
11 11 14 20 24 31 30 33 35 35 35 36 39 43 45 46 46 48 49 51 54 56 61 63 63 63 65 70 73 76 85 90 98 96 94 96 97 97 95 93 89 84 81 78 76 71 65 56 44 35 31 30 30 31
17 27 26 32 34 36 39 44 46 45 48 49 51 52 54 55 55 57 60 61 62 62 66 71 76 79 85 87 89 93 97 98 98 98 97 97 96 93 89 87 84 81 77 72 64 52 41 34 31 29 29 30 31 32
35 42 41 43 46 48 49 53 54 55 54 56 60 62 64 63 64 66 67 71 74 75 80 84 81 89 97 95 97 98 98 97 95 93 93 92 92 89 85 81 74 66 55 47 41 35 29 28 28 29 31 34 35 36
45 50 52 51 51 51 55 59 61 62 65 67 68 70 71 70 72 75 76 77 79 82 84 86 92 96 96 97 97 96 96 96 97 96 92 87 79 70 59 54 51 47 41 32 28 27 28 28 28 30 32 37 39 39
61 61 59 59 60 62 67 70 72 73 74 77 78 81 83 84 85 87 86 86 87 89 91 94 96 96 97 98 97 96 94 88 78 68 58 52 48 49 47 45 40 34 29 28 28 27 27 28 30 34 38 41 41 41
72 68 69 71 73 75 76 77 77 78 78 78 76 75 77 79 78 78 78 78 78 79 79 79 79 79 78 77 75 68 60 54 49 46 46 47 48 48 47 41 35 30 29 28 28 29 33 37 40 42 42 43 43 40
64 60 64 61 61 63 64 65 66 66 67 69 71 72 73 76 75 74 75 75 75 75 73 71 69 69 68 64 58 54 52 51 51 52 53 53 51 47 41 35 33 32 33 34 38 41 43 44 43 45 45 44 40 38
50 45 45 43 42 44 46 47 49 51 53 57 61 64 65 65 64 65 65 65 65 64 65 67 68 65 62 59 56 56 59 60 59 54 50 46 42 39 38 38 39 40 41 42 43 44 43 44 46 47 44 39 39 41
48 49 48 46 46 44 43 44 46 48 49 50 52 52 54 58 60 60 63 65 67 69 70 69 66 64 63 65 66 64 59 52 47 44 43 44 44 45 46 47 46 46 45 45 45 44 45 46 47 45 42 42 43 45
44 43 42 43 43 44 45 44 44 46 49 51 54 57 61 64 66 67 68 68 68 68 67 66 67 69 67 63 57 52 50 48 47 45 43 42 43 44 44 43 43 42 42 41 41 43 46 47 47 45 42 40 40 42